Marshfield, WI

8:38 PM CST on November 14, 2019 (GMT -0600)
Marshfield Municipal

Weather History for KMFI - September, 2019

Change the Weather History Date:

Sunday, September 22, 2019

  Actual Average Record
Temperature  
Mean Temperature 63 °F -  
Max Temperature 71 °F 63 °F 93 °F (1937)
Min Temperature 55 °F 41 °F 23 °F (1974)
Degree Days  
Heating Degree Days 2    
Growing Degree Days 13 (Base 50)    
Moisture  
Dew Point 64 °F    
Average Humidity 88    
Maximum Humidity 97    
Minimum Humidity 68    
Precipitation  
Precipitation 0.09 in - - ()
Sea Level Pressure  
Sea Level Pressure 29.82 in    
Wind  
Wind Speed 8 mph (WSW)    
Max Wind Speed 14 mph    
Max Gust Speed -    
Visibility 8 miles    
Events Rain    
Averages and records for this station are not official NWS values.
T = Trace of Precipitation, MM = Missing Value Source: NWS Daily Summary

Daily Weather History Graph

Daily Weather History Graph

Search for Another Location

Airport or City:

Astronomy

Sep. 22, 2019 Rise Set
Actual Time 6:47 AM CDT 6:58 PM CDT
Civil Twilight 6:18 AM CDT 7:27 PM CDT
Nautical Twilight 5:44 AM CDT 8:01 PM CDT
Astronomical Twilight 5:09 AM CDT 8:36 PM CDT
Moon No Moon Rise 3:09 PM CDT (9/22)
Length of Visible Light 13h 09m
Length of Day
12h 10m
Last Quarter, 44% of the Moon is Illuminated
Sep 22
Last Quarter
Sep 28
New
Oct 5
First Quarter
Oct 13
Full
Oct 21
Last Quarter

Hourly Weather History & Observations

Time (CDT) Temp. Dew Point Humidity Pressure Visibility Wind Dir Wind Speed Gust Speed Precip Events Conditions
12:15 AM 71.1 °F 70.0 °F 96% 29.85 in 7.0 mi SW 9.2 mph - N/A   Overcast
12:24 AM 71.1 °F 70.0 °F 96% 29.85 in 7.0 mi SSW 9.2 mph - N/A   Mostly Cloudy
12:54 AM 71.1 °F 70.0 °F 96% 29.84 in 8.0 mi SSW 10.4 mph - N/A   Overcast
1:04 AM 71.1 °F 69.1 °F 93% 29.85 in 8.0 mi SW 9.2 mph - N/A   Overcast
1:54 AM 71.1 °F 69.1 °F 93% 29.82 in 9.0 mi SW 8.1 mph - N/A   Overcast
2:03 AM 71.1 °F 69.1 °F 93% 29.84 in 8.0 mi SW 8.1 mph - N/A   Mostly Cloudy
2:19 AM 71.1 °F 69.1 °F 93% 29.84 in 8.0 mi SSW 8.1 mph - N/A   Overcast
2:26 AM 71.1 °F 69.1 °F 93% 29.83 in 8.0 mi SSW 9.2 mph - N/A   Overcast
2:54 AM 71.1 °F 69.1 °F 93% 29.82 in 7.0 mi SW 10.4 mph - N/A   Overcast
3:44 AM 70.0 °F 68.0 °F 93% 29.80 in 7.0 mi SW 8.1 mph - N/A   Mostly Cloudy
3:50 AM 71.6 °F 69.8 °F 94% 29.81 in 7.0 mi SW 9.2 mph - N/A   Mostly Cloudy
3:54 AM 71.1 °F 69.1 °F 93% 29.80 in 7.0 mi SW 8.1 mph - N/A   Mostly Cloudy
4:31 AM 70.0 °F 69.1 °F 97% 29.82 in 7.0 mi WSW 5.8 mph - N/A   Mostly Cloudy
4:40 AM 70.0 °F 68.0 °F 93% 29.81 in 7.0 mi WSW 5.8 mph - N/A   Mostly Cloudy
4:47 AM 70.0 °F 68.0 °F 93% 29.82 in 8.0 mi WSW 5.8 mph - N/A   Scattered Clouds
4:54 AM 70.0 °F 68.0 °F 93% 29.80 in 7.0 mi WSW 5.8 mph - N/A   Mostly Cloudy
5:54 AM 70.0 °F 68.0 °F 93% 29.79 in 5.0 mi West 8.1 mph - 0.00 in Rain Light Rain
6:12 AM 70.0 °F 68.0 °F 93% 29.81 in 7.0 mi SW 8.1 mph - 0.00 in   Overcast
6:21 AM 70.0 °F 68.0 °F 93% 29.82 in 6.0 mi SW 8.1 mph - 0.00 in Rain Light Rain
6:54 AM 69.1 °F 66.9 °F 93% 29.81 in 7.0 mi WSW 8.1 mph - 0.00 in   Mostly Cloudy
7:11 AM 69.1 °F 66.0 °F 90% 29.82 in 10.0 mi West 8.1 mph - N/A   Mostly Cloudy
7:23 AM 69.1 °F 66.0 °F 90% 29.83 in 10.0 mi West 5.8 mph - N/A   Scattered Clouds
7:38 AM 68.0 °F 66.0 °F 93% 29.83 in 8.0 mi WSW 4.6 mph - N/A   Scattered Clouds
7:54 AM 68.0 °F 66.0 °F 93% 29.81 in 8.0 mi Calm Calm - 0.00 in Rain Light Rain
8:54 AM 66.0 °F 61.0 °F 84% 29.81 in 8.0 mi WNW 6.9 mph - 0.00 in Rain Light Rain
9:54 AM 66.0 °F 63.0 °F 90% 29.80 in 4.0 mi NNW 6.9 mph - 0.01 in Rain Light Rain
10:54 AM 66.0 °F 62.1 °F 87% 29.82 in 10.0 mi WNW 6.9 mph - 0.00 in   Unknown
11:54 AM 68.0 °F 61.0 °F 78% 29.80 in 10.0 mi WNW 9.2 mph - N/A   Clear
12:54 PM 69.1 °F 59.0 °F 70% 29.80 in 10.0 mi WNW 11.5 mph - N/A   Scattered Clouds
1:54 PM 68.0 °F 59.0 °F 73% 29.79 in 10.0 mi West 9.2 mph - N/A   Overcast
2:54 PM 66.9 °F 60.1 °F 79% 29.77 in 10.0 mi WSW 6.9 mph - N/A   Clear
3:54 PM 66.9 °F 59.0 °F 76% 29.75 in 10.0 mi WSW 6.9 mph - N/A   Clear
4:54 PM 68.0 °F 57.0 °F 68% 29.78 in 10.0 mi WNW 10.4 mph - N/A   Scattered Clouds
5:54 PM 66.9 °F 57.9 °F 73% 29.79 in 10.0 mi West 6.9 mph - N/A   Clear
6:54 PM 64.9 °F 57.0 °F 75% 29.81 in 10.0 mi WNW 8.1 mph - N/A   Mostly Cloudy
7:54 PM 64.0 °F 55.0 °F 73% 29.83 in 10.0 mi WNW 9.2 mph - N/A   Overcast
8:54 PM 61.0 °F 51.1 °F 70% 29.85 in 10.0 mi WNW 13.8 mph - 0.00 in Rain Light Rain
9:54 PM 57.0 °F 53.1 °F 87% 29.86 in 10.0 mi WNW 5.8 mph - 0.08 in Rain Light Rain
10:54 PM 55.9 °F 53.1 °F 90% 29.88 in 10.0 mi WNW 4.6 mph - 0.00 in   Mostly Cloudy
11:54 PM 55.9 °F 54.0 °F 93% 29.88 in 10.0 mi West 6.9 mph - N/A   Overcast